Other Surface Observations
Issued by NWS

Home | Current Version | Previous Version | Text Only | Print | Product List | Glossary On
Versions: 1 2 3 4 5 6 7 8 9 10 11 12 13 14 15 16 17 18 19 20 21 22 23 24 25 26 27 28 29 30 31 32 33 34 35 36 37 38 39 40 41 42 43 44 45 46 47 48 49 50
011
SXUS52 KTAE 140905
OSOTAE
OSOTAE
North Florida/South Alabama/Southwest Georgia Weather Roundup
National Weather Service Tallahassee Florida
400 AM EST SUN FEB 14 2016

Note: "fair" indicates few or no clouds below 12,000 feet with no
significant weather and/or obstructions to visibility.

!FLZ017-115-028-034-025-141000
...North Florida...

CITY           SKY/WX    TMP DP  RH WIND       PRES   REMARKS
TALLAHASSEE    CLEAR     42  16  34 NE6       30.30F WCI  38
APALACHICOLA   CLEAR     39  26  59 NE9       30.28F WCI  33
PERRY          CLEAR     37  22  56 N3        30.32S
CROSS CITY       N/A     34  24  67 CALM      30.29F
JACKSONVILLE   CLEAR     36  28  73 N3        30.29F
$$

!FLZ112-006-005-002-011-141000
...Florida Panhandle...

CITY           SKY/WX    TMP DP  RH WIND       PRES   REMARKS
MARIANNA       CLEAR     36  22  56 E5        30.30F WCI  32
BONIFAY        NOT AVBL
PANAMA CITY NW FAIR      37  24  59 NE7       30.28F WCI  32
TYNDALL AFB    CLEAR     41  23  47 NE7       30.28F WCI  37
TYND DRONE APT FAIR      40  25  54 MISG      30.28F
DE FUNIAK SPR  FAIR      37  18  45 NE8       30.29F WCI  31
EGLIN AFB      CLEAR     40  15  35 E9        30.27F WCI  35
DESTIN         CLEAR     45  22  40 E8        30.28F WCI  41
HURLBURT       CLEAR     40  14  34 NE8       30.26F WCI  34
CRESTVIEW      CLEAR     29  24  82 CALM      30.30F
PENSACOLA      PTCLDY    42  20  41 E6        30.28S WCI  38
$$

!ALZ063-066-141000
...South Alabama...

CITY           SKY/WX    TMP DP  RH WIND       PRES   REMARKS
DOTHAN         CLEAR     35  17  47 E7        30.33F WCI  29
OZARK CAIRNS   CLEAR     33  19  56 NE3       30.31R
FT RUCKER HELI CLEAR     31  24  75 CALM      30.30S
RUCKER HELI 3  FAIR      33  18  54 NE3       30.32R
RUCKER HELI 2  NOT AVBL
FLORALA APT    CLEAR     34  19  54 NE6       30.30F WCI  29
ANDALUSIA      CLEAR     35  19  52 E3        30.29F
TROY           CLEAR     32  22  66 CALM      30.32S
EUFALA         FAIR      32  21  64 CALM      30.32S
MOBILE         CLOUDY    38  22  52 E9        30.27F WCI  31
$$

!GAZ120>161-141000
...Southwest and South Central Georgia...

CITY           SKY/WX    TMP DP  RH WIND       PRES   REMARKS
THOMASVILLE    FAIR      36  21  55 NE3       30.32F
BAINBRIDGE     CLEAR     36  27  69 NE3       30.32S
MOODY AFB      CLEAR     33  19  56 N6        30.30F WCI  28
VALDOSTA       CLEAR     35  21  56 N6        30.32S WCI  30
MOULTRIE       CLEAR     36  19  51 NE3       30.32S
BLAKELY        CLEAR     34  30  86 CALM      30.33S
ALBANY         CLEAR     35  16  45 NE7       30.34F WCI  29
TIFTON         FAIR      33  18  54 NE5       30.32F WCI  29
FITZGERALD     FAIR      33  16  49 N5        30.35F WCI  28
CORDELE        FAIR      32  23  68 NE3       30.35F
AMERICUS       FAIR      30  18  59 NE7       30.34F WCI  23
HOMERVILLE     FAIR      36  27  69 CALM      30.32F
$$

!GMZ750-755-770-775-141000
...Coastal and Buoy Obs...

STATION/POSITION TIME  TEMP    WIND        PRES    VSBY  WAVE
                       AIR SEA DIR/SP/G                  HT/PER
                 (UTC) (F)     (DEG/KT/KT) (MB)    (MI)  (FT/S)
KEATON BEACH     0900   38      40/  7/  9 1025.5F
CEDAR KEY        0800   45      50/ 10/ 11 1025.6F
C TOWER          NOT AVBL
APALACHICOLA BUO 0850   57 66   60/ 17/ 19 1023.8F         4/ 6
PANAMA CITY BUOY 0750   58 68   60/ 16/ 19 1024.7          3/ 5
MOBILE BUOY      NOT AVBL
ORANGE BCH AL BU 0850   54 63   80/ 14/ 17 1024.2F         3/ 4
$$




USA.gov is the U.S. government's official web portal to all federal, state and local government web resources and services.